EN

Hourly Weather Lachy

Today, 5 August, Thursday

Time Temperature Precipitation Wind Pressure Humidity
00:00 +14°C° 0 mm 1 mps 702 mmHg 92%
01:00 +14°C° 0 mm 1 mps 702 mmHg 93%
02:00 +14°C° 0.9 mm 1 mps 701 mmHg 95%
03:00 +14°C° 0.9 mm 1 mps 701 mmHg 96%
04:00 +14°C° 0.9 mm 1 mps 701 mmHg 98%
05:00 +14°C° 0.4 mm 1 mps 700 mmHg 97%
06:00 +14°C° 0.4 mm 1 mps 700 mmHg 97%
07:00 +14°C° 0 mm 1 mps 700 mmHg 97%
08:00 +15°C° 0.6 mm 1 mps 700 mmHg 97%
09:00 +15°C° 0.6 mm 1 mps 699 mmHg 97%
10:00 +15°C° 0.6 mm 1 mps 699 mmHg 96%
11:00 +15°C° 1 mm 1 mps 699 mmHg 97%
12:00 +15°C° 1 mm 1 mps 698 mmHg 97%
13:00 +15°C° 0 mm 2 mps 698 mmHg 97%
14:00 +15°C° 3.4 mm 2 mps 697 mmHg 98%
15:00 +15°C° 3.4 mm 1 mps 697 mmHg 98%
16:00 +15°C° 3.4 mm 1 mps 696 mmHg 99%
17:00 +15°C° 5.2 mm 2 mps 695 mmHg 99%
18:00 +15°C° 5.2 mm 2 mps 695 mmHg 99%
19:00 +14°C° 5.2 mm 2 mps 695 mmHg 98%
20:00 +14°C° 3.1 mm 2 mps 695 mmHg 98%
21:00 +13°C° 3.1 mm 3 mps 695 mmHg 98%
22:00 +13°C° 3.1 mm 3 mps 695 mmHg 98%
23:00 +13°C° 1.3 mm 3 mps 695 mmHg 98%

Tomorrow, 6 August, Friday

Time Temperature Precipitation Wind Pressure Humidity
00:00 +12°C° 1.3 mm 3 mps 695 mmHg 97%
01:00 +12°C° 1.3 mm 4 mps 695 mmHg 97%
02:00 +12°C° 0.9 mm 3 mps 695 mmHg 97%
03:00 +12°C° 0.9 mm 3 mps 695 mmHg 97%
04:00 +11°C° 0.9 mm 3 mps 695 mmHg 97%
05:00 +11°C° 1 mm 3 mps 696 mmHg 97%
06:00 +11°C° 1 mm 3 mps 696 mmHg 97%
07:00 +12°C° 1 mm 3 mps 697 mmHg 97%
08:00 +12°C° 0.3 mm 3 mps 697 mmHg 95%
09:00 +12°C° 0.3 mm 3 mps 698 mmHg 93%
10:00 +13°C° 0.3 mm 3 mps 698 mmHg 92%
11:00 +14°C° 0.1 mm 3 mps 699 mmHg 83%
12:00 +17°C° 0.1 mm 3 mps 699 mmHg 74%
13:00 +18°C° 0.1 mm 4 mps 699 mmHg 65%
14:00 +18°C° 0.3 mm 3 mps 699 mmHg 68%
15:00 +18°C° 0.3 mm 3 mps 699 mmHg 71%
16:00 +18°C° 0.3 mm 3 mps 699 mmHg 74%
17:00 +17°C° 0.2 mm 3 mps 699 mmHg 79%
18:00 +16°C° 0.2 mm 2 mps 699 mmHg 84%
19:00 +14°C° 0.2 mm 2 mps 699 mmHg 89%
20:00 +14°C° 0 mm 2 mps 699 mmHg 90%
21:00 +13°C° 0 mm 2 mps 699 mmHg 92%
22:00 +13°C° 0 mm 2 mps 699 mmHg 93%
23:00 +12°C° 0 mm 2 mps 699 mmHg 93%

Day after tomorrow, 7 August, Saturday

Time Temperature Precipitation Wind Pressure Humidity
00:00 +12°C° 0 mm 2 mps 700 mmHg 94%
01:00 +12°C° 0 mm 2 mps 700 mmHg 94%
02:00 +12°C° 0 mm 2 mps 700 mmHg 94%
03:00 +12°C° 0 mm 2 mps 700 mmHg 94%
04:00 +12°C° 0 mm 2 mps 700 mmHg 95%
05:00 +13°C° 0 mm 2 mps 700 mmHg 91%
06:00 +15°C° 0 mm 2 mps 701 mmHg 88%
07:00 +16°C° 0 mm 2 mps 701 mmHg 85%
08:00 +18°C° 0 mm 2 mps 702 mmHg 75%
09:00 +19°C° 0 mm 3 mps 702 mmHg 66%
10:00 +21°C° 0 mm 3 mps 702 mmHg 56%
11:00 +22°C° 0 mm 3 mps 702 mmHg 53%
12:00 +24°C° 0 mm 3 mps 702 mmHg 49%
13:00 +25°C° 0 mm 3 mps 702 mmHg 46%
14:00 +25°C° 0 mm 2 mps 702 mmHg 46%
15:00 +25°C° 0 mm 2 mps 702 mmHg 47%
16:00 +25°C° 0 mm 1 mps 702 mmHg 47%
17:00 +23°C° 0 mm 1 mps 701 mmHg 56%
18:00 +21°C° 0 mm 1 mps 701 mmHg 66%
19:00 +19°C° 0 mm 1 mps 701 mmHg 75%
20:00 +18°C° 0 mm 2 mps 701 mmHg 76%
21:00 +17°C° 0 mm 2 mps 700 mmHg 77%
22:00 +16°C° 0 mm 2 mps 700 mmHg 78%
23:00 +16°C° 0 mm 2 mps 700 mmHg 78%

8 August, Sunday

Time Temperature Precipitation Wind Pressure Humidity
00:00 +15°C° 0 mm 2 mps 699 mmHg 78%
01:00 +15°C° 0 mm 2 mps 699 mmHg 77%
02:00 +15°C° 0 mm 2 mps 699 mmHg 75%
03:00 +15°C° 0 mm 2 mps 699 mmHg 72%
04:00 +15°C° 0 mm 2 mps 699 mmHg 69%
05:00 +16°C° 0 mm 2 mps 700 mmHg 70%
06:00 +17°C° 0 mm 3 mps 700 mmHg 70%
07:00 +18°C° 0 mm 3 mps 701 mmHg 71%
08:00 +19°C° 0 mm 3 mps 702 mmHg 70%
09:00 +19°C° 0 mm 4 mps 703 mmHg 70%
10:00 +20°C° 0 mm 5 mps 703 mmHg 69%
11:00 +21°C° 0 mm 4 mps 704 mmHg 65%
12:00 +22°C° 0 mm 4 mps 704 mmHg 60%
13:00 +24°C° 0 mm 3 mps 704 mmHg 55%
14:00 +24°C° 0 mm 3 mps 704 mmHg 56%
15:00 +24°C° 0 mm 3 mps 704 mmHg 57%
16:00 +24°C° 0 mm 3 mps 704 mmHg 58%
17:00 +21°C° 0 mm 2 mps 705 mmHg 66%
18:00 +20°C° 0 mm 1 mps 705 mmHg 73%
19:00 +18°C° 0 mm 1 mps 705 mmHg 81%
20:00 +18°C° 0 mm 1 mps 705 mmHg 80%
21:00 +18°C° 0 mm 1 mps 705 mmHg 79%
22:00 +16°C° 0 mm 1 mps 706 mmHg 79%
23:00 +15°C° 0.3 mm 2 mps 706 mmHg 84%

9 August, Monday

Time Temperature Precipitation Wind Pressure Humidity
00:00 +15°C° 0.3 mm 2 mps 706 mmHg 89%
01:00 +14°C° 0.3 mm 2 mps 707 mmHg 93%
02:00 +13°C° 0.8 mm 2 mps 707 mmHg 94%
03:00 +13°C° 0.8 mm 1 mps 707 mmHg 95%
04:00 +13°C° 0.8 mm 1 mps 707 mmHg 96%
05:00 +13°C° 0 mm 1 mps 707 mmHg 93%
06:00 +13°C° 0 mm 0 mps 708 mmHg 89%
07:00 +14°C° 0 mm 0 mps 708 mmHg 85%
08:00 +15°C° 0 mm 0 mps 708 mmHg 78%
09:00 +19°C° 0 mm 1 mps 708 mmHg 70%
10:00 +20°C° 0 mm 1 mps 709 mmHg 63%
11:00 +21°C° 0 mm 1 mps 709 mmHg 59%
12:00 +22°C° 0 mm 1 mps 709 mmHg 56%
13:00 +23°C° 0 mm 1 mps 709 mmHg 53%
14:00 +23°C° 0 mm 1 mps 708 mmHg 53%
15:00 +23°C° 0 mm 1 mps 708 mmHg 54%
16:00 +23°C° 0 mm 1 mps 708 mmHg 55%
17:00 +21°C° 0 mm 1 mps 708 mmHg 64%
18:00 +19°C° 0 mm 1 mps 708 mmHg 74%
19:00 +16°C° 0 mm 1 mps 708 mmHg 83%
20:00 +15°C° 0 mm 1 mps 708 mmHg 85%
21:00 +15°C° 0 mm 1 mps 708 mmHg 87%
22:00 +14°C° 0 mm 1 mps 708 mmHg 89%
23:00 +14°C° 0 mm 1 mps 708 mmHg 90%

10 August, Tuesday

Time Temperature Precipitation Wind Pressure Humidity
00:00 +13°C° 0 mm 1 mps 708 mmHg 90%
01:00 +13°C° 0 mm 1 mps 708 mmHg 90%
02:00 +13°C° 0 mm 1 mps 708 mmHg 89%
03:00 +13°C° 0 mm 1 mps 708 mmHg 88%
04:00 +13°C° 0 mm 1 mps 707 mmHg 87%
05:00 +14°C° 0 mm 1 mps 708 mmHg 83%
06:00 +14°C° 0 mm 0 mps 708 mmHg 79%
07:00 +15°C° 0 mm 0 mps 708 mmHg 75%
08:00 +17°C° 0 mm 0 mps 708 mmHg 67%
09:00 +19°C° 0 mm 0 mps 708 mmHg 59%
10:00 +22°C° 0 mm 1 mps 708 mmHg 50%
11:00 +23°C° 0 mm 1 mps 708 mmHg 49%
12:00 +23°C° 0 mm 1 mps 708 mmHg 47%
13:00 +24°C° 0 mm 2 mps 708 mmHg 46%
14:00 +23°C° 0.1 mm 1 mps 708 mmHg 52%
15:00 +22°C° 0.1 mm 1 mps 707 mmHg 57%
16:00 +22°C° 0.1 mm 1 mps 707 mmHg 63%
17:00 +20°C° 0.4 mm 1 mps 707 mmHg 69%
18:00 +18°C° 0.4 mm 1 mps 707 mmHg 75%
19:00 +16°C° 0.4 mm 1 mps 706 mmHg 81%
20:00 +15°C° 0.4 mm 1 mps 707 mmHg 83%
21:00 +14°C° 0.4 mm 1 mps 707 mmHg 86%
22:00 +13°C° 0.4 mm 1 mps 707 mmHg 88%
23:00 +13°C° 0 mm 1 mps 707 mmHg 89%
Show more